Altoona, PA

12:15 PM EDT on August 25, 2019 (GMT -0400)
Altoona-Blair County

Weather History for KAOO - May, 2019

Change the Weather History Date:

Tuesday, May 14, 2019

  Actual Average Record
Temperature  
Mean Temperature 48 °F 57 °F  
Max Temperature 52 °F 69 °F 92 °F (1962)
Min Temperature 43 °F 46 °F 28 °F (1996)
Degree Days  
Heating Degree Days 17 8  
Month to date heating degree days 84 136  
Since 1 July heating degree days 5638 6054  
Cooling Degree Days 0 1  
Month to date cooling degree days 8 4  
Year to date cooling degree days 8 10  
Moisture  
Dew Point 40 °F    
Average Humidity 75    
Maximum Humidity 83    
Minimum Humidity 66    
Precipitation  
Precipitation 0.03 in 0.13 in 1.01 in (1957)
Month to date precipitation 3.98 1.64  
Year to date precipitation 16.79 12.11  
Sea Level Pressure  
Sea Level Pressure 29.88 in    
Wind  
Wind Speed 12 mph (NW)    
Max Wind Speed 23 mph    
Max Gust Speed 29 mph    
Visibility 10 miles    
Events Rain    
T = Trace of Precipitation, MM = Missing Value Source: NWS Daily Summary

Daily Weather History Graph

Daily Weather History Graph

Search for Another Location

Airport or City:

Astronomy

May. 14, 2019 Rise Set
Actual Time 5:58 AM EDT 8:21 PM EDT
Civil Twilight 5:27 AM EDT 8:52 PM EDT
Nautical Twilight 4:49 AM EDT 9:30 PM EDT
Astronomical Twilight 4:07 AM EDT 10:12 PM EDT
Moon 3:39 PM EDT (5/14) 3:51 AM EDT (5/14)
Length of Visible Light 15h 24m
Length of Day
14h 22m
Waxing Gibbous, 79% of the Moon is Illuminated
May 14
Waxing Gibbous
May 18
Full
May 26
Last Quarter
Jun 3
New
Jun 10
First Quarter

Hourly Weather History & Observations

Time (EDT) Temp. Windchill Dew Point Humidity Pressure Visibility Wind Dir Wind Speed Gust Speed Precip Events Conditions
12:06 AM 46.9 °F - 42.1 °F 83% 29.84 in 10.0 mi NW 12.7 mph 16.1 mph N/A   Overcast
12:45 AM 46.0 °F 40.6 °F 41.0 °F 83% 29.84 in 10.0 mi WNW 11.5 mph - 0.00 in   Overcast
12:53 AM 46.0 °F 41.0 °F 41.0 °F 83% 29.86 in 10.0 mi NW 10.4 mph - 0.00 in   Overcast
1:24 AM 46.0 °F 39.3 °F 39.9 °F 79% 29.83 in 10.0 mi WNW 16.1 mph - N/A   Overcast
1:53 AM 45.0 °F 38.9 °F 39.0 °F 80% 29.84 in 10.0 mi WNW 12.7 mph - N/A   Mostly Cloudy
2:53 AM 44.1 °F 38.6 °F 37.9 °F 79% 29.83 in 10.0 mi WNW 10.4 mph - N/A   Clear
3:32 AM 44.1 °F 39.5 °F 37.9 °F 79% 29.81 in 10.0 mi NW 8.1 mph - N/A   Mostly Cloudy
3:46 AM 44.1 °F 38.1 °F 37.9 °F 79% 29.80 in 10.0 mi WNW 11.5 mph - N/A   Scattered Clouds
3:53 AM 44.1 °F 39.5 °F 37.9 °F 79% 29.82 in 10.0 mi West 8.1 mph - N/A   Scattered Clouds
4:53 AM 44.1 °F 38.1 °F 37.9 °F 79% 29.83 in 10.0 mi WNW 11.5 mph 19.6 mph N/A   Mostly Cloudy
5:01 AM 45.0 °F 39.3 °F 37.9 °F 76% 29.82 in 10.0 mi WNW 11.5 mph 19.6 mph N/A   Mostly Cloudy
5:37 AM 44.1 °F 37.7 °F 37.0 °F 76% 29.83 in 10.0 mi West 12.7 mph 23.0 mph N/A   Overcast
5:53 AM 44.1 °F 38.6 °F 37.0 °F 76% 29.84 in 10.0 mi West 10.4 mph - N/A   Overcast
6:53 AM 43.0 °F 37.2 °F 37.9 °F 82% 29.86 in 5.0 mi WNW 10.4 mph - 0.00 in Rain Light Rain
7:53 AM 44.1 °F 39.0 °F 37.9 °F 79% 29.87 in 10.0 mi WNW 9.2 mph - 0.01 in   Overcast
8:53 AM 45.0 °F 38.9 °F 37.9 °F 76% 29.88 in 10.0 mi WNW 12.7 mph - N/A   Overcast
9:53 AM 46.0 °F 39.6 °F 37.9 °F 73% 29.89 in 10.0 mi WNW 15.0 mph 21.9 mph N/A   Overcast
10:53 AM 46.0 °F 39.6 °F 37.0 °F 71% 29.90 in 10.0 mi WNW 15.0 mph - N/A   Overcast
11:53 AM 46.0 °F 38.8 °F 37.9 °F 73% 29.91 in 10.0 mi West 18.4 mph - N/A   Overcast
12:53 PM 46.9 °F - 37.9 °F 71% 29.91 in 10.0 mi WNW 12.7 mph - N/A   Overcast
1:39 PM 48.9 °F - 39.9 °F 71% 29.88 in 10.0 mi WNW 11.5 mph - N/A   Overcast
1:53 PM 48.9 °F - 39.9 °F 71% 29.90 in 10.0 mi WNW 12.7 mph - N/A   Overcast
2:34 PM 51.1 °F - 42.1 °F 71% 29.88 in 10.0 mi NW 13.8 mph 21.9 mph 0.00 in Rain Light Rain
2:53 PM 50.0 °F - 41.0 °F 71% 29.89 in 10.0 mi NW 12.7 mph - 0.00 in Rain Light Rain
3:31 PM 50.0 °F - 42.1 °F 74% 29.89 in 10.0 mi NW 15.0 mph 23.0 mph 0.00 in   Overcast
3:51 PM 51.8 °F - 42.8 °F 71% 29.89 in 10.0 mi NW 16.1 mph 28.8 mph 0.00 in Rain Light Rain
3:53 PM 50.0 °F - 42.1 °F 74% 29.90 in 10.0 mi WNW 16.1 mph 25.3 mph 0.00 in Rain Light Rain
4:13 PM 52.0 °F - 42.1 °F 69% 29.89 in 10.0 mi NW 13.8 mph 23.0 mph 0.00 in Rain Light Rain
4:53 PM 50.0 °F - 42.1 °F 74% 29.91 in 10.0 mi NW 18.4 mph 26.5 mph 0.01 in Rain Light Rain
5:09 PM 48.9 °F - 43.0 °F 80% 29.90 in 6.0 mi NW 15.0 mph 23.0 mph 0.01 in Rain Light Rain
5:23 PM 51.1 °F - 44.1 °F 77% 29.90 in 10.0 mi NW 15.0 mph 23.0 mph 0.01 in   Mostly Cloudy
5:53 PM 52.0 °F - 42.1 °F 69% 29.92 in 10.0 mi NW 17.3 mph 23.0 mph 0.01 in   Mostly Cloudy
6:53 PM 50.0 °F - 39.9 °F 68% 29.93 in 10.0 mi NW 15.0 mph 19.6 mph 0.00 in   Mostly Cloudy
8:53 PM 48.9 °F - 39.9 °F 71% 29.96 in 10.0 mi NW 8.1 mph - N/A   Overcast
9:53 PM 48.0 °F - 39.9 °F 74% 29.98 in 10.0 mi NW 10.4 mph - N/A   Mostly Cloudy
10:53 PM 46.9 °F - 39.0 °F 74% 29.98 in 10.0 mi North 8.1 mph - N/A   Clear
11:53 PM 46.0 °F 42.5 °F 39.0 °F 76% 29.98 in 10.0 mi North 6.9 mph - N/A   Clear